Theta_e
331 331 335 334 336 336 335 335 336 337 338 337 343 337 339 339 339 339 339 340 339 338 337 341 340 340 338 336 338 337 338 340 335 331 329 333 329 329 334 333 330 331 329 329 326 322 318 315 318 325 328 328 327 328 329 328 328 329 329 329 329 330 329
334 334 334 335 335 334 334 334 336 333 336 336 337 339 338 338 339 342 340 339 339 339 335 338 340 336 339 338 336 337 339 336 335 334 332 333 331 329 330 329 329 328 327 330 330 328 320 317 316 318 320 325 325 325 326 327 327 328 328 329 329 329 328
333 333 333 332 332 333 332 334 335 335 335 340 341 336 340 336 339 339 339 338 340 339 338 335 336 340 338 338 338 338 337 336 336 335 333 333 332 332 332 330 327 325 324 325 326 324 325 323 317 317 319 318 317 320 326 325 325 326 327 327 328 327 327
333 331 330 331 331 332 332 333 336 337 335 337 340 339 340 336 341 339 338 336 341 342 337 335 335 337 340 339 338 338 337 336 335 335 335 334 333 331 331 330 329 327 325 322 323 325 323 320 319 319 320 320 319 318 322 325 323 325 325 326 325 325 323
333 331 330 329 330 330 332 332 336 335 335 336 338 337 339 338 340 339 339 337 337 341 339 336 336 335 338 339 338 338 337 337 337 335 334 332 332 332 332 332 331 330 329 327 326 327 327 322 321 318 318 318 319 319 322 323 323 324 324 323 320 319 318
332 332 332 331 330 330 331 332 333 332 333 332 335 335 338 338 338 336 338 337 336 341 339 335 335 334 339 339 337 336 337 336 335 335 333 333 333 330 330 333 332 331 331 332 329 327 330 327 323 318 318 319 315 316 319 321 318 321 322 319 318 316 314
332 332 332 331 331 332 331 332 331 332 332 333 334 333 336 336 336 337 339 337 336 337 338 337 335 334 340 336 336 338 336 337 336 335 335 334 334 334 334 331 330 331 331 333 329 330 328 327 323 319 317 317 317 315 318 317 317 315 316 318 317 314 312
332 332 331 331 332 332 332 332 333 335 334 331 334 335 335 337 336 338 338 336 336 336 337 337 337 336 334 332 333 335 337 339 336 335 334 334 333 333 333 332 332 332 332 336 334 330 329 327 326 320 318 314 314 314 311 314 315 315 313 314 315 312 311
333 333 332 332 333 334 332 332 335 335 334 335 334 335 335 337 335 335 335 336 336 336 336 336 336 334 336 334 333 334 335 335 336 335 335 335 333 334 332 333 331 330 333 332 333 332 327 329 328 324 321 316 312 309 312 311 311 311 315 311 312 312 310
333 332 332 332 334 335 335 333 335 335 336 334 335 335 335 335 336 335 335 334 336 336 335 336 335 334 336 333 333 332 331 335 334 332 334 332 334 335 333 333 331 332 330 333 334 332 333 329 328 327 323 320 317 310 308 307 309 307 311 312 309 309 311
332 333 333 333 334 334 335 335 335 335 333 334 334 334 334 335 335 335 332 334 335 335 335 335 331 332 334 333 332 333 333 334 334 334 334 334 333 334 333 332 332 331 331 332 332 333 332 329 325 324 323 322 319 313 311 308 307 312 309 311 312 309 310
334 333 334 333 333 333 332 333 332 335 333 335 332 333 334 331 334 333 330 332 333 334 335 335 332 331 332 331 331 331 332 332 331 331 333 334 333 334 331 331 331 331 332 332 330 331 329 327 327 325 331 328 323 319 315 311 307 314 312 310 311 313 310
334 334 333 332 332 331 330 332 333 333 335 332 333 333 333 330 333 329 329 330 330 332 333 331 332 332 331 331 331 328 328 330 328 328 329 332 331 334 331 331 331 331 332 331 330 329 327 327 326 324 321 326 322 319 314 312 309 308 316 311 310 311 310
334 333 332 332 331 331 330 331 332 333 332 332 333 332 333 329 329 328 327 327 326 330 331 331 333 330 330 330 331 329 327 327 325 327 328 328 328 329 331 331 330 331 332 329 326 327 324 323 326 325 324 321 321 319 317 313 308 309 313 313 311 309 310
333 331 331 331 330 330 331 332 333 331 331 332 331 329 330 330 329 328 325 323 326 327 330 329 331 331 328 328 328 331 330 328 324 325 327 325 327 330 330 328 330 329 329 326 325 321 321 323 317 317 318 321 317 324 319 313 310 309 307 310 309 310 310
332 331 330 330 329 329 331 331 331 331 331 331 330 330 331 330 329 328 325 326 323 327 329 328 330 330 330 327 325 327 329 328 325 326 326 324 324 326 328 329 327 328 328 324 324 324 324 321 317 316 317 317 317 321 316 315 312 311 309 310 312 308 308
332 330 330 330 329 330 331 330 330 331 330 331 328 332 331 327 329 330 325 324 323 325 329 327 330 329 325 326 325 325 325 325 326 325 326 325 323 324 325 326 325 325 325 322 323 323 322 323 321 317 317 318 319 317 320 320 318 313 312 311 309 307 309
330 330 329 330 330 330 330 330 330 330 331 330 329 331 329 330 328 328 327 323 321 323 327 325 327 328 327 328 326 326 325 325 327 326 325 325 328 325 325 325 324 324 325 325 323 320 322 323 319 318 318 316 317 320 323 322 319 316 315 313 311 313 310
329 329 329 330 329 329 330 330 330 330 329 328 329 333 328 331 327 325 323 322 320 322 324 326 325 324 322 326 326 323 324 326 325 325 325 323 324 326 324 324 326 325 325 324 323 324 321 320 321 320 319 317 316 320 320 320 320 320 316 315 314 313 310
330 329 328 329 330 329 329 330 329 328 329 329 328 328 327 330 330 326 322 323 321 325 324 324 326 325 322 324 323 322 326 325 327 324 324 324 324 324 324 324 324 326 324 324 325 324 323 323 322 321 318 320 319 317 322 317 316 316 318 316 316 315 315
328 330 330 329 329 328 328 328 328 326 327 327 326 324 322 325 329 325 325 324 321 325 322 316 313 316 322 324 324 326 325 326 324 324 325 325 325 325 325 324 325 325 325 324 324 324 323 323 322 320 321 319 322 320 322 320 321 318 316 316 315 314 315
327 329 330 328 328 328 327 328 327 327 327 326 326 326 326 324 326 326 323 324 322 318 315 312 306 305 309 321 329 326 325 324 324 323 324 323 324 325 323 324 321 319 320 316 309 310 311 315 322 322 322 322 320 322 319 319 319 318 316 317 316 317 314
326 327 326 326 327 327 327 327 327 325 323 323 326 324 324 324 324 327 321 321 320 316 311 307 300 296 299 306 319 321 326 326 324 324 323 322 323 325 323 321 321 319 315 314 308 301 300 302 308 314 315 318 320 321 320 320 318 317 317 315 313 314 313
325 324 325 326 326 325 326 326 325 324 322 322 324 324 324 324 324 323 321 319 315 313 307 302 295 294 295 297 310 321 326 324 325 322 324 321 322 324 324 323 320 321 319 319 310 301 300 300 299 298 299 302 308 317 317 317 318 318 315 315 314 314 313
324 324 326 323 324 325 325 325 325 325 324 324 324 325 323 322 321 320 318 316 315 311 305 296 292 294 295 295 299 315 321 325 327 326 323 324 323 323 323 323 322 323 323 322 321 318 313 302 301 299 297 296 296 295 300 315 316 315 317 316 315 315 314
321 321 320 321 323 323 323 323 323 323 323 324 324 322 318 317 317 317 315 311 308 306 304 294 292 293 294 294 293 309 320 322 326 324 324 323 323 323 325 326 324 326 326 326 322 324 321 316 300 299 306 309 309 306 299 297 299 311 315 315 314 314 315
318 317 317 317 318 319 319 320 321 321 321 321 320 317 314 312 311 309 308 305 302 300 297 293 292 292 293 293 293 304 323 326 323 322 321 323 322 322 324 323 323 321 324 325 324 323 324 324 322 320 319 319 319 317 310 303 299 296 299 311 314 315 317
314 314 314 314 314 314 315 316 317 318 318 317 317 314 311 309 307 306 305 303 301 298 296 291 291 292 292 293 297 307 325 327 323 321 322 322 322 321 324 325 323 323 322 321 308 303 318 322 321 321 318 318 318 319 319 319 319 319 316 314 312 314 316
313 313 312 312 312 311 311 311 312 314 314 314 314 314 312 310 307 305 304 302 300 299 297 291 291 292 292 292 303 321 323 322 320 320 320 318 319 321 322 322 322 320 322 316 298 294 297 309 320 320 317 317 316 317 317 315 310 310 315 319 320 320 321
310 310 311 311 311 310 309 310 311 313 311 311 311 311 311 310 308 305 303 301 300 298 297 293 291 292 292 291 303 319 319 317 319 321 317 319 320 321 316 319 322 323 316 304 295 294 295 304 319 320 320 318 318 319 319 322 313 302 298 298 299 298 296
306 307 307 306 306 307 309 311 312 313 311 310 309 310 311 310 309 307 305 302 301 299 297 295 291 292 292 293 299 315 314 315 315 315 318 321 321 318 310 309 316 313 307 301 292 293 296 309 315 316 316 317 318 317 316 318 320 319 300 298 297 296 295
303 304 304 305 305 305 305 306 308 309 309 308 308 308 308 307 307 308 308 306 306 301 299 297 292 291 292 293 303 311 310 309 308 309 310 310 314 315 307 301 299 299 299 294 290 291 294 304 312 311 312 312 314 315 312 311 314 315 316 317 317 315 310
302 302 302 303 305 305 305 305 305 306 306 306 306 306 306 304 303 303 303 303 305 305 301 297 294 291 292 293 296 305 306 304 303 303 305 306 308 310 310 305 299 291 291 290 290 290 291 293 304 307 309 310 311 313 307 308 310 311 311 312 314 317 318
304 303 303 303 304 304 305 305 305 304 304 304 304 304 304 304 303 303 303 303 302 303 302 298 295 291 291 292 293 299 303 301 300 301 303 304 306 307 308 309 299 292 290 291 291 290 291 291 294 303 305 307 309 301 299 305 306 303 308 310 312 314 316
305 305 305 303 303 303 303 303 304 305 303 304 304 303 303 304 304 304 304 303 302 302 301 299 296 292 291 291 291 293 300 299 297 301 304 305 307 308 308 308 299 294 291 292 291 291 290 291 290 299 303 298 296 294 301 302 304 306 308 309 310 310 312
303 304 304 305 305 304 304 303 303 303 303 304 304 304 304 304 303 303 303 304 302 301 301 299 294 295 291 291 291 291 291 295 291 302 302 301 301 302 304 301 300 295 291 291 291 291 291 290 291 298 296 294 293 292 293 301 303 304 304 305 306 307 308
304 304 304 304 304 305 306 305 307 307 304 303 303 304 303 305 304 304 303 304 304 301 300 299 295 294 293 291 291 290 292 291 290 296 297 299 300 302 299 299 297 292 292 292 291 291 291 290 292 291 290 291 291 292 298 300 301 303 302 301 302 304 305
Wind_Speed
6 6 6 5 4 3 2 3 3 5 4 4 2 3 3 3 3 3 4 3 5 5 3 0 1 1 2 3 3 2 2 2 4 4 3 1 3 1 1 2 3 1 3 1 6 3 6 7 5 4 3 3 4 3 1 3 3 5 5 6 4 4 5
5 5 4 3 4 4 3 3 3 5 4 5 3 3 3 3 3 2 3 3 3 2 4 4 2 3 1 3 4 3 2 4 3 4 3 1 2 3 2 3 4 3 3 2 2 1 5 7 6 6 6 4 3 2 2 2 3 4 6 6 6 5 6
5 4 4 5 4 4 3 4 5 4 5 3 2 4 2 5 3 3 2 2 2 2 1 5 1 1 3 3 3 2 3 4 3 4 4 3 3 3 1 2 3 3 2 1 0 2 4 4 7 7 7 7 5 1 2 3 4 5 5 6 6 6 5
9 7 6 5 4 4 4 4 3 4 5 4 2 2 1 4 2 3 3 3 1 2 2 5 5 1 0 3 2 3 3 3 5 5 4 3 3 4 3 3 3 3 2 2 2 2 3 4 7 7 6 6 6 5 4 5 5 6 6 6 5 5 7
9 8 8 7 6 4 4 4 2 5 4 5 3 3 1 3 2 2 3 3 3 1 2 5 6 3 3 2 3 3 2 3 3 4 4 3 3 2 2 2 2 4 3 2 2 2 1 5 7 7 6 8 7 5 5 4 6 6 6 6 7 8 8
9 9 7 6 6 5 5 4 4 4 4 5 4 3 2 3 3 3 2 3 4 2 1 3 5 3 3 1 2 2 2 3 3 3 4 3 3 4 2 2 2 3 3 2 3 3 0 4 5 7 6 6 6 6 5 5 4 7 6 8 8 7 8
8 9 7 7 6 5 6 4 4 5 4 5 4 6 3 3 3 3 2 3 4 3 2 2 3 5 2 2 2 1 2 2 4 4 3 3 2 3 3 4 3 2 2 3 4 3 3 3 4 5 6 5 7 8 7 6 6 5 5 8 8 7 7
9 8 8 7 6 7 6 5 4 4 5 5 4 4 4 3 3 3 3 4 3 3 3 2 2 3 4 4 3 3 2 2 2 4 4 4 3 4 3 2 2 1 2 0 2 3 3 2 3 6 6 8 4 2 5 6 8 6 5 6 8 8 8
8 8 7 6 6 6 6 5 3 4 5 4 4 4 4 3 3 4 3 3 3 3 3 2 2 3 1 4 5 3 2 3 2 4 3 4 4 4 4 3 2 2 2 2 1 1 3 5 3 6 6 6 7 7 4 4 4 6 6 7 7 8 8
8 8 7 7 6 6 6 6 3 4 5 4 4 5 3 4 3 3 3 3 3 3 3 3 3 3 1 4 4 4 3 3 3 4 3 4 4 4 2 3 2 1 3 2 1 1 3 4 4 3 3 3 3 6 3 3 3 5 6 7 5 5 7
8 7 6 7 7 6 6 5 4 4 5 4 5 4 4 3 3 3 5 2 1 3 2 2 4 3 3 3 3 3 3 3 3 3 4 3 5 4 4 3 3 2 2 2 2 1 2 3 5 5 4 4 6 6 5 5 4 2 5 6 6 6 8
7 7 5 7 7 6 6 5 5 4 5 4 6 5 3 4 3 3 5 2 1 2 2 1 5 4 3 3 3 3 3 3 4 3 4 4 3 4 5 4 3 3 2 3 2 2 3 3 4 3 2 2 5 6 7 6 5 2 5 5 6 8 9
8 7 6 8 8 7 7 5 6 5 4 5 4 6 4 5 3 5 3 2 1 1 1 3 2 3 4 3 3 5 4 3 3 3 3 3 4 1 3 4 3 3 3 3 2 3 3 2 2 3 3 0 4 6 7 6 4 5 3 6 7 8 10
9 8 8 8 8 7 6 6 6 5 5 4 4 3 3 4 4 4 3 3 3 1 2 2 0 3 3 3 2 3 4 4 5 3 3 4 7 4 4 1 3 3 3 3 3 3 4 5 5 3 2 4 4 5 4 5 6 4 3 5 6 7 9
8 7 8 8 7 8 6 6 6 7 5 4 4 4 3 4 4 4 4 4 3 3 3 2 1 1 3 1 3 2 2 2 4 4 4 4 4 4 6 4 3 4 5 4 4 3 2 1 4 3 2 0 2 2 3 4 4 4 4 4 5 6 7
7 7 8 7 7 8 7 6 6 6 5 5 4 3 3 4 4 4 4 3 3 3 3 3 1 1 2 3 1 1 1 2 6 4 3 5 6 6 3 2 6 4 3 4 4 2 2 3 4 5 3 1 3 2 2 5 6 4 6 3 4 6 6
9 8 8 7 8 7 7 8 6 6 5 4 6 3 4 4 4 3 4 3 3 3 2 4 1 1 3 2 1 0 2 4 3 4 3 3 5 7 6 4 4 4 4 4 3 2 2 2 3 4 4 5 3 3 3 2 2 4 4 5 4 5 6
9 8 8 7 8 8 8 8 5 6 5 4 5 3 4 3 4 3 3 3 4 3 3 4 3 2 3 1 0 1 1 1 1 2 5 4 4 4 4 4 3 4 3 2 2 4 2 2 2 4 1 6 3 3 1 2 2 5 4 5 5 2 6
9 7 8 7 8 7 8 7 5 4 5 4 4 3 4 2 3 3 3 3 4 3 4 3 3 3 4 2 1 2 1 1 2 1 5 6 5 4 4 4 3 3 0 3 1 0 1 2 2 2 1 1 2 5 2 1 1 1 4 4 5 3 4
7 6 7 6 6 7 7 7 6 5 5 4 5 3 3 1 1 3 3 3 3 3 4 4 3 4 4 3 3 3 2 2 0 4 2 4 7 4 4 4 4 3 3 2 2 1 3 4 4 4 4 6 3 4 3 3 2 2 1 2 1 2 2
4 4 6 5 7 7 7 5 5 6 4 5 5 4 4 4 2 3 3 2 4 2 7 10 10 9 3 3 1 2 2 1 3 1 0 3 4 4 4 5 3 3 4 5 5 6 6 4 3 3 3 3 3 2 1 1 1 1 3 3 3 2 2
2 4 3 7 6 7 7 5 6 6 5 5 4 3 3 4 2 1 3 4 11 10 8 7 7 6 8 5 2 2 2 1 3 2 2 4 3 2 5 7 7 6 7 9 12 9 8 7 6 6 6 5 3 2 1 3 1 1 0 1 1 3 4
3 4 2 3 6 7 6 5 5 6 5 4 3 4 3 4 3 1 10 10 8 9 7 5 8 10 7 4 6 1 3 2 2 2 2 4 1 1 7 6 6 10 10 10 10 11 11 11 10 6 3 5 6 5 4 4 3 3 1 1 3 4 3
7 4 3 0 5 6 6 5 5 6 5 4 4 4 5 8 9 11 10 9 8 7 6 5 10 8 8 11 7 7 1 4 3 4 1 5 1 1 5 7 5 7 8 7 7 9 10 9 9 9 9 9 6 5 4 5 5 5 4 3 3 4 2
4 3 1 8 7 7 5 5 4 4 5 5 7 11 10 9 8 8 8 7 8 7 6 9 10 9 9 10 8 6 6 3 1 1 2 2 3 2 2 4 4 4 3 4 4 4 4 5 6 9 9 7 6 5 4 1 2 4 4 5 5 4 4
8 7 5 6 5 8 10 9 8 9 9 8 10 11 10 9 8 8 8 8 8 7 5 11 11 11 10 10 10 7 4 7 3 1 1 0 1 1 1 3 5 4 5 5 3 3 1 2 7 10 8 8 7 7 8 4 2 1 3 3 3 4 3
9 7 7 10 10 10 10 9 8 7 8 9 10 10 10 10 9 9 8 7 7 6 6 11 12 11 10 10 9 6 4 4 5 5 5 6 5 5 4 4 5 5 3 4 6 5 4 4 4 3 2 1 1 2 3 2 3 2 2 2 4 5 5
10 10 9 11 11 11 11 8 9 8 8 8 8 8 8 9 8 9 8 7 7 6 6 13 13 14 12 10 8 4 3 3 3 4 5 7 12 12 11 9 8 6 4 3 8 7 6 3 2 2 1 0 2 3 3 4 2 0 1 3 4 7 7
9 7 9 9 11 10 11 9 8 9 9 8 7 8 8 8 8 10 9 8 9 7 7 15 14 15 14 13 8 4 4 4 5 5 8 8 7 7 10 9 5 4 3 7 8 11 8 5 2 0 1 1 2 3 5 6 8 6 6 5 4 4 6
9 9 9 10 10 9 9 9 7 6 9 8 8 8 8 8 8 8 9 8 8 6 6 12 15 15 14 13 7 4 3 3 4 5 5 6 6 8 5 3 1 3 7 6 9 12 11 7 3 4 2 0 2 3 5 4 5 8 10 10 10 9 5
10 9 10 11 10 8 7 6 6 5 7 7 8 7 7 8 8 8 7 7 6 6 7 10 14 13 13 14 9 1 3 7 9 8 7 6 5 7 9 14 10 7 7 5 5 10 11 7 4 5 5 6 5 4 3 6 6 3 7 10 10 9 9
9 9 10 10 9 9 8 8 6 7 7 7 6 5 7 7 7 6 6 6 7 8 6 8 12 11 12 13 10 5 6 7 8 8 7 7 5 6 5 8 13 10 7 7 11 11 11 7 3 3 3 3 4 3 4 5 6 7 7 7 7 6 6
9 9 9 9 8 8 6 7 8 7 6 5 6 6 7 7 7 6 6 6 6 6 5 5 7 9 10 12 13 9 8 9 8 7 7 6 7 5 5 4 7 8 9 8 8 8 8 8 5 2 2 1 2 2 6 7 7 6 8 8 9 9 7
8 8 7 7 7 7 6 6 5 7 7 6 7 7 7 6 6 6 5 6 6 5 4 3 4 9 11 14 14 11 7 7 6 5 4 3 2 2 1 3 4 5 6 6 6 5 4 3 2 0 1 2 2 1 3 4 7 8 7 7 8 8 8
7 7 6 8 7 6 5 6 5 6 5 5 6 7 6 5 5 5 4 5 5 5 4 5 4 8 11 12 13 13 8 6 4 4 4 3 2 2 2 4 3 3 3 2 1 2 3 2 1 2 4 6 6 5 3 3 5 5 5 6 6 6 6
6 5 6 5 6 5 4 7 4 3 4 4 4 4 4 4 4 4 5 4 5 5 4 4 7 6 8 11 11 11 9 5 2 1 2 2 3 5 5 4 3 7 8 8 7 5 5 5 5 4 8 8 7 2 2 3 3 4 5 5 5 6 6
5 4 4 5 4 3 2 3 2 1 4 5 4 4 4 5 5 5 5 6 7 6 5 5 5 8 6 7 8 7 7 7 7 5 4 2 3 4 5 4 4 9 10 11 11 11 11 8 7 10 10 9 6 2 2 3 4 5 5 5 5 6 6
Wind_Direction
154 148 149 168 165 178 184 200 219 202 202 159 177 147 145 148 149 158 161 164 167 171 150 72 140 138 169 142 136 123 107 60 104 112 136 105 135 131 108 101 86 106 138 82 141 147 133 133 123 77 95 120 120 152 174 134 147 123 127 122 135 120 104
145 138 144 160 164 187 175 219 227 187 193 147 176 133 152 142 133 155 153 148 167 160 141 138 129 186 149 92 103 98 93 101 91 114 107 117 131 128 149 118 98 80 55 15 75 94 140 129 131 142 135 112 101 100 119 128 112 112 123 131 126 136 136
139 140 159 176 172 179 195 207 217 178 126 126 133 143 157 126 164 144 169 148 160 140 130 122 50 66 105 126 128 122 117 118 125 98 100 106 114 112 173 121 129 96 74 47 92 112 109 129 141 147 144 144 129 166 161 166 156 140 133 135 145 151 141
159 158 163 177 182 181 196 191 178 130 127 136 115 90 138 135 151 146 155 116 106 88 99 119 119 33 346 139 130 128 138 137 134 131 139 142 115 120 127 147 148 138 130 155 169 160 139 141 133 143 152 134 136 145 197 188 138 127 143 161 148 116 96
160 166 171 172 172 180 172 159 152 120 124 110 114 108 262 111 134 118 95 128 106 94 87 97 110 182 200 145 136 143 144 136 127 132 129 138 131 114 113 111 114 108 118 142 163 160 171 134 145 146 146 136 144 144 160 165 140 150 163 156 112 105 103
165 164 166 166 167 175 150 173 146 137 138 132 141 138 191 119 115 110 135 102 109 105 119 129 128 124 69 353 132 144 146 141 135 127 125 127 134 147 169 122 128 148 157 143 134 161 246 136 148 146 138 146 132 140 162 170 159 168 172 129 124 116 114
162 165 166 168 176 155 156 163 148 145 170 134 158 153 170 136 134 135 144 132 127 119 98 90 110 122 141 138 90 83 172 137 120 132 136 129 131 134 134 133 143 168 106 132 157 183 165 137 141 151 133 131 154 156 160 172 150 141 132 120 123 122 116
164 165 168 170 176 154 158 151 146 154 140 141 162 137 142 143 121 121 92 79 90 115 108 107 114 118 147 149 129 144 261 106 137 138 137 139 138 143 147 123 139 140 138 153 152 165 170 173 167 142 144 146 168 169 146 150 150 151 129 111 112 104 105
167 162 165 173 170 150 148 142 154 145 144 142 143 125 123 128 110 91 93 109 103 98 113 116 120 123 166 113 124 122 113 141 201 120 144 155 161 155 150 148 162 137 130 164 208 125 131 214 157 147 157 169 157 151 161 132 127 113 132 108 98 109 123
170 163 166 168 152 139 140 140 152 146 135 138 128 117 130 105 108 122 140 99 114 130 133 156 133 112 119 107 126 157 181 127 162 158 150 142 153 138 126 135 133 126 135 198 79 100 149 159 131 162 173 178 147 126 126 100 111 142 135 120 125 139 119
167 163 170 157 133 127 127 132 143 137 130 138 124 128 118 117 118 188 93 95 101 120 142 169 140 131 140 123 138 146 126 143 135 141 122 146 159 151 142 156 142 131 143 136 137 193 114 151 154 189 208 186 148 144 138 135 163 193 129 140 136 133 130
162 163 176 139 134 136 136 140 142 129 129 120 117 120 131 130 173 105 98 117 136 124 202 164 110 149 131 125 169 128 135 158 145 150 152 170 144 129 149 150 127 139 150 118 131 190 176 168 205 201 248 184 177 142 140 139 147 139 140 149 135 142 138
166 164 160 139 137 145 147 142 131 128 122 114 121 134 174 148 166 106 118 140 141 161 182 88 165 136 122 166 151 149 179 171 149 171 147 134 119 63 150 131 139 139 141 135 178 198 182 203 208 228 178 165 98 121 127 143 129 143 162 127 140 142 143
164 157 151 140 145 145 149 130 136 122 104 117 125 141 173 149 125 126 143 154 163 158 111 171 228 122 138 179 190 133 181 181 159 145 121 129 121 172 111 157 139 138 159 174 169 197 208 199 182 159 88 74 97 122 147 123 131 124 81 126 135 144 154
153 156 144 144 149 143 137 137 123 123 127 130 143 163 169 138 130 160 147 161 146 162 147 181 114 127 152 158 90 207 204 221 121 113 145 123 119 141 135 157 121 165 191 145 175 199 213 155 102 98 81 93 80 55 63 112 117 132 137 129 139 137 152
151 152 143 145 150 140 134 120 115 122 136 133 161 174 149 145 149 173 140 147 153 141 173 134 136 165 94 97 154 263 269 70 98 111 100 135 146 109 79 162 163 171 136 153 206 219 195 217 171 131 155 194 109 74 24 122 135 136 145 174 175 149 156
154 158 151 150 146 142 132 128 131 139 149 152 161 181 133 161 145 176 140 140 148 149 173 121 172 167 111 125 249 7 44 79 96 131 133 135 122 137 156 168 152 147 154 159 219 155 239 280 319 143 139 80 90 46 56 31 148 127 147 150 216 166 160
155 156 148 150 145 139 126 129 145 148 144 156 151 140 128 157 142 166 136 149 136 168 157 146 169 115 124 152 156 79 68 129 216 168 145 111 90 105 117 110 137 138 166 148 106 141 255 353 318 70 68 124 160 129 95 13 25 138 136 154 197 234 152
153 149 148 150 142 138 128 133 136 136 152 145 119 145 133 152 153 142 148 163 139 174 146 162 154 157 142 148 164 118 274 167 244 213 113 130 120 116 133 141 122 122 99 96 136 251 120 238 353 108 241 52 110 126 115 79 339 75 140 167 168 211 147
135 145 148 147 136 128 126 132 149 143 131 118 111 94 108 124 85 131 174 156 140 136 142 178 166 142 132 167 130 196 193 200 209 72 102 130 138 153 158 129 129 147 140 190 197 96 76 27 40 17 32 10 46 79 100 174 187 168 223 145 144 186 191
122 92 133 129 119 123 125 138 135 122 127 123 128 144 168 147 199 141 167 137 135 99 57 40 24 11 345 134 163 145 127 184 93 111 28 94 111 139 128 132 123 74 70 55 50 47 41 22 25 355 47 41 42 88 47 177 16 79 163 167 174 202 266
100 76 83 129 133 132 135 138 126 137 128 128 146 136 132 133 148 167 129 63 61 60 61 44 26 6 352 353 105 144 162 154 131 143 105 86 80 71 83 73 79 97 89 83 81 78 67 57 49 37 9 19 29 34 358 345 142 231 173 144 195 179 192
116 91 69 119 133 131 132 126 117 112 109 115 124 111 112 121 163 144 80 67 67 60 56 54 15 18 19 357 343 277 166 137 123 106 95 97 101 132 104 99 94 94 82 78 82 80 75 65 61 67 50 32 31 22 15 0 357 346 348 182 220 200 204
128 128 124 62 144 137 135 119 117 125 128 137 118 106 72 51 46 52 68 75 74 71 57 25 6 11 15 28 22 359 240 142 164 144 184 125 165 66 121 118 117 101 103 102 85 84 85 84 81 73 64 61 47 47 20 9 358 358 4 354 2 359 1
108 120 147 196 159 141 112 92 90 84 90 80 79 78 75 74 72 73 70 68 66 69 66 17 8 7 23 31 28 2 9 5 49 63 92 121 149 143 130 129 121 125 123 121 126 101 82 86 86 62 47 35 33 40 104 101 359 351 7 1 352 336 345
91 95 72 65 67 80 81 78 71 65 64 63 71 75 75 72 65 63 63 62 59 47 54 17 4 7 12 32 22 11 28 6 6 350 60 37 33 57 83 101 128 74 63 57 58 46 101 124 71 63 62 30 13 353 333 332 3 5 345 331 318 302 289
89 83 74 74 77 78 76 72 71 68 65 65 70 74 71 69 64 59 55 58 59 41 41 359 5 9 2 16 26 18 19 8 2 6 22 28 14 18 16 27 75 91 60 35 38 32 41 64 98 101 65 28 318 327 3 349 286 276 187 252 284 275 278
79 74 77 84 79 77 77 64 68 63 63 62 70 75 79 80 78 77 64 61 64 48 22 4 8 9 1 354 19 33 13 351 358 6 11 28 24 9 2 13 57 53 34 58 56 11 13 33 98 108 108 117 287 300 300 298 277 248 241 234 248 265 271
70 66 68 66 78 78 75 63 59 76 77 73 74 84 82 78 76 74 72 63 63 45 22 14 10 10 1 344 351 43 31 21 17 18 45 47 53 32 17 7 40 64 41 47 32 43 32 4 345 111 139 227 258 266 267 252 251 247 247 256 251 266 282
61 63 61 69 71 73 83 85 65 59 74 72 72 73 80 78 73 75 68 65 63 47 30 15 13 11 1 346 332 57 69 63 49 60 52 67 60 63 58 289 32 61 67 45 26 37 28 27 6 340 320 290 267 304 304 312 274 254 254 250 252 259 265
60 59 65 63 60 58 61 70 88 88 89 89 82 77 85 81 76 75 82 83 76 65 50 21 19 13 5 356 313 260 88 57 50 39 43 60 70 66 41 28 38 78 85 72 52 53 35 38 35 18 13 351 319 291 340 2 355 327 248 265 276 262 247
52 57 63 60 56 56 53 54 53 63 63 65 64 68 73 82 81 72 72 83 90 76 54 29 18 12 16 12 6 21 45 70 54 37 33 28 52 98 61 44 45 49 57 45 44 45 38 27 57 23 25 327 335 348 57 347 345 336 337 333 313 292 276
56 54 56 57 56 60 61 56 50 61 73 80 84 83 78 74 73 65 57 53 49 56 70 49 16 14 26 31 29 41 36 49 48 37 30 23 7 43 88 76 46 38 49 46 51 48 49 46 41 16 350 322 289 311 7 336 331 334 322 312 305 302 281
72 72 67 64 62 58 54 62 62 69 74 74 76 74 80 84 90 94 86 83 78 62 73 78 36 28 38 40 37 42 53 52 45 37 31 9 4 340 11 122 99 39 36 29 22 19 41 60 105 265 232 248 282 241 321 316 313 317 292 280 275 274 280
48 64 76 78 73 67 66 70 70 78 82 91 96 100 105 116 110 115 119 112 103 102 88 89 72 38 45 49 47 43 54 63 68 36 356 329 283 258 281 84 67 54 36 59 5 316 307 278 259 252 249 240 263 304 319 279 291 281 283 294 294 290 285
50 51 55 65 81 89 97 97 108 126 115 113 112 128 141 144 143 142 157 145 135 123 112 84 71 59 47 53 47 47 43 54 22 39 14 338 351 335 47 53 12 357 341 335 329 315 289 281 259 232 241 250 249 230 211 244 253 271 270 276 289 291 292
42 48 65 71 74 91 90 98 76 139 175 155 159 165 163 167 165 170 160 157 145 135 117 100 79 84 72 55 51 47 26 7 355 2 2 324 327 0 6 356 334 320 325 326 325 326 318 299 277 285 291 285 291 288 240 254 239 237 242 245 255 263 270